Location: Amsterdam
(30.7274°N, 84.4357°W)
Time: 09:27:20
(UTC+00:00)

Transit 2A Rocket - Pass Details

Date: 11 February 2026
Orbit: 583 x 900 km, 66.7° (Epoch: 7 March)

Event Time Altitude Azimuth Distance (km) Brightness Sun altitude
Rises 00:38:22 0° 260° (W) 3,471 10.2 -17.0°
Reaches altitude 10° 00:42:53 10° 292° (WNW) 2,566 8.6 -17.9°
Maximum altitude 00:44:52 12° 311° (NW) 2,456 8.2 -18.4°
Drops below altitude 10° 00:46:53 10° 331° (NNW) 2,577 8.0 -18.8°
Sets 00:51:28 0° 3° (N) 3,506 8.3 -19.8°
